Skip Page Navigation
NASA JPL Caltech
NASA Logo - Jet Propulsion Laboratory + View the NASA Portal
+ Near-Earth Object (NEO) Program
Search JPL
JPL Home Earth Solar System Stars & Galaxies Technology
JPL Solar System Dynamics
BODIES ORBITS EPHEMERIDES TOOLS PHYSICAL DATA DISCOVERY FAQ SITE MAP
JPL Small-Body Database Browser
Search: [ help ]  
199145 (2005 YY128)
Classification: Apollo [NEO, PHA]          SPK-ID: 2199145
Ephemeris | Orbit Diagram | Orbital Elements | Physical Parameters | Discovery Circumstances | Close-Approach Data ]

[ hide orbit diagram ]
Orbit Diagram
Note: Make sure you have Java enabled on your browser to see the applet. This applet is provided as a 3D orbit visualization tool. The applet was implemented using 2-body methods, and hence should not be used for determining accurate long-term trajectories (over several years or decades) or planetary encounter circumstances. For accurate long-term ephemerides, please instead use our Horizons system.
Orbit Viewer

Additional Notes: the orbits shown in the applet are color coded. The planets are white lines, and the asteroid/comet is a blue line. The bright white line indicates the portion of the orbit that is above the ecliptic plane, and the darker portion is below the ecliptic plane. Likewise for the asteroid/comet orbit, the light blue indicates the portion above the ecliptic plane, and the dark blue the portion below the ecliptic plane.

Orbit Viewer applet originally written and kindly provided by Osamu Ajiki (AstroArts), and further modified by Ron Baalke (JPL).


Orbital Elements at Epoch 2456400.5 (2013-Apr-18.0) TDB
Reference: JPL 71 (heliocentric ecliptic J2000)
 Element Value Uncertainty (1-sigma)   Units 
e .7322082994191865 6.979e-08  
a 1.649334367544421 2.6088e-08 AU
q .4416780551111009 1.0977e-07 AU
i 3.765364196702821 8.1441e-06 deg
node 300.4341928240373 8.0668e-05 deg
peri 314.6276667606148 8.1755e-05 deg
M 107.7949420795547 2.0811e-05 deg
tp 2456168.836628548585
(2012-Aug-29.33662855)
4.0261e-05 JED
period 773.6802127595137
2.12
1.8356e-05
5.026e-08
d
yr
n .4653085267826287 1.104e-08 deg/d
Q 2.85699067997774 4.5189e-08 AU
  Orbit Determination Parameters
   # obs. used (total)      284  
   data-arc span      2524 days (6.91 yr)  
   first obs. used      2005-12-30  
   last obs. used      2012-11-27  
   planetary ephem.      DE405  
   SB-pert. ephem.      SB405-CPV-2  
   condition code      0  
   fit RMS      .50778  
   data source      ORB  
   producer      Otto Matic  
   solution date      2013-Apr-29 15:40:30  

Additional Information
 Earth MOID = .029064 AU 
 T_jup = 3.920 
[ show covariance matrix ]

Ephemeris | Orbit Diagram | Orbital Elements | Physical Parameters | Discovery Circumstances | Close-Approach Data ]

Physical Parameter Table
Parameter Symbol Value Units Sigma Reference Notes
absolute magnitude H 18.211 mag .44235 71 autocmod 2.5c

199145 (2005 YY128)          Discovered 2005-Dec-30 by Spacewatch at Kitt Peak (691)
Reference: 20081113/Numbers.arcLast Updated: 2008-11-17

[ show close-approach data ]
Ephemeris | Orbit Diagram | Orbital Elements | Physical Parameters | Discovery Circumstances | Close-Approach Data ]
ABOUT SSD CREDITS/AWARDS PRIVACY/COPYRIGHT GLOSSARY LINKS
FirstGov 2013-May-21 20:59 UT
(server date/time)  
NASA Home Page
Site Manager:   Donald K. Yeomans
Webmaster  Alan B. Chamberlin